Home > Weather > Gorgan > Past weeks

Flag for Iran Weather for the Past 2 Weeks in Gorgan, Iran

Now
68 °F

Overcast.


Feels Like: 68 °F
Forecast: 61 / 71 °F
Wind: 12 mph from West

Location: Gorgan Airport

Current Time: May 1, 2016 at 6:23:12 PM

Latest Report: May 1, 2016 at 5:30 PM


Visibility: 4 mi

Pressure: 29.98 "Hg

Humidity: 73%

Dew Point: 59 °F

Location of GorganLocation

Historic Weather in Gorgan — Graph

°F

Gorgan Temperature Yesterday

Maximum temperature yesterday: 72 °F (at 12:30 PM)
Minimum temperature yesterday: 57 °F (at 5:30 AM)
Average temperature yesterday: 63 °F

High & Low Weather Summary for the Past Weeks

 TemperatureHumidityPressure
High97 °F (Apr 26, 2:30 PM)100% (Apr 17, 7:30 AM)30.42 "Hg (Apr 17, 7:30 AM)
Low41 °F (Apr 19, 5:30 AM)27% (Apr 26, 2:30 PM)29.68 "Hg (Apr 26, 4:30 AM)
Average63 °F80%30.00 "Hg
* Reported Apr 16 4:30 PM — May 1 4:30 PM, Gorgan, Weather by CustomWeather, © 2016

Note: Actual official high and low records may vary slightly from our data, if they occured in-between our weather recording intervals... More about our weather records

Advertising

Gorgan Weather History for the Previous 24 Hours

Scroll right to see more
 ConditionsComfort  
Time TempWeatherWind HumidityBarometerVisibility
4:30 PM
Sun, May 1
68 °FOvercast.7 mph78%29.98 "Hg4 mi
3:30 PM68 °FBroken clouds.5 mph73%30.01 "Hg4 mi
2:30 PM70 °FBroken clouds.No wind69%30.01 "Hg4 mi
1:30 PM66 °FPartly sunny.No wind73%30.01 "Hg4 mi
12:30 PM66 °FMostly cloudy.No wind78%30.01 "Hg4 mi
11:30 AM64 °FMostly cloudy.5 mph83%30.04 "Hg4 mi
10:30 AM64 °FMostly cloudy.No wind78%30.04 "Hg4 mi
9:30 AM63 °FFog.No wind88%30.04 "Hg3 mi
8:30 AM63 °FFog.No wind88%30.01 "Hg2 mi
7:30 AM59 °FFog.7 mph100%30.01 "Hg1 mi
6:30 AM59 °FFog.No wind100%29.98 "Hg2 mi
5:30 AM59 °FPartly cloudy.No wind100%29.98 "Hg4 mi
4:30 AM59 °FPartly cloudy.No wind94%29.98 "Hg4 mi
3:30 AM57 °FPartly cloudy.No wind100%30.01 "Hg4 mi
2:30 AM61 °FFog.No wind94%30.01 "Hg3 mi
1:30 AM61 °FFog.No wind94%30.01 "Hg3 mi
12:30 AM61 °FFog.No wind94%30.01 "Hg3 mi
11:30 PM
Sat, Apr 30
61 °FFog.No wind94%30.01 "Hg3 mi
10:30 PM61 °FFog.No wind94%30.01 "Hg3 mi
10:00 PM61 °FFog.No wind94%30.04 "Hg3 mi
9:30 PM61 °FFog.7 mph94%30.04 "Hg3 mi
9:00 PM61 °FFog.No wind94%30.04 "Hg3 mi
8:30 PM61 °FFog.No wind94%30.04 "Hg3 mi
8:00 PM61 °FFog.7 mph94%30.04 "Hg2 mi
7:30 PM61 °FFog.12 mph94%30.04 "Hg1 mi
6:30 PM61 °FFog.9 mph94%30.04 "Hg1 mi
Weather by CustomWeather, © 2016

See weather overviewHow to use our weather pages